Location: Austin
(30.3000°N, 97.7500°W)
Time: 12:28:27
(UTC-05:00)

Meteor 2-9 Rocket - Pass Details

Date: 26 May 2023
Orbit: 792 x 894 km, 81.3° (Epoch: 31 May)

Event Time Altitude Azimuth Distance (km) Brightness Sun altitude
Rises 23:00:29 0° 352° (N) 3,504 8.3 -27.4°
Reaches altitude 10° 23:02:57 10° 353° (N) 2,556 7.4 -27.8°
Enters shadow 23:08:41 86° 31° (NNE) 884 4.1 -28.5°
